Zurück zum Katalog

STARLINK-35903

AktivKommunikationVLEO
NORAD 67168·PAYLOAD·🇺🇸 United States

Gestartet Dec 17, 2025 von Cape Canaveral Space Force Station

Loading…

Nächste Überflüge (nächste 24 Stunden)

TLE

AktuellSource: CelesTrak SupGP

Epoche: Sep 14, 2026, 21:09 UTC

1 67168C 25303F   26257.88173611 -.00029438  00000+0 -10661-2 0  2578
2 67168  43.0025 322.0783 0001411 274.8734  17.3046 15.27597717    14

Verfolge STARLINK-35903 in Echtzeit mit AllMySat

Download on the App Store